Content
SEND FEEDBACK

Daily
Averages
Monthly
Summary
United States of America

UNIONTOWN, WASHINGTON


Home > North America > United States > Washington
Elevation: 1349 feet     Latitude: 46 23N     Longitude: 117 01W

WEATHER
 
SELECT A DAY
Number of Records: 187,427;   Date Range: 1/1/95 - 9/20/14
 
SHARE

PRINT THIS DATA

[ ← Previous Day ]
WEATHER ALMANAC - JANUARY 31, 2013
[ Next Day → ]
[ °C ]   °F
Weather ElementAverageHighLow
Temperature44 °F48.9 °F (12:56 pm)39.9 °F (4:56 am)
Dewpoint39.2 °F42.1 °F (12:56 pm)36 °F (1:56 am)
Humidity83.5 %93 % (7:56 am)74 % (3:56 pm)
Barometer30.27 in30.32 in (10:56 am)30.23 in (9:56 pm)
Wind Speed2.3 mph4.6 mph (4:56 am)
Weather ElementAverage
Visibility9.9 mi
Wind DirectionENE (63.9 °)

Weather ElementTotal
Precipitation0.01 in
Heating Degree Days20.6 (Base 65)
Averaged from 23 records on January 31, 2013
WEATHER CONDITIONS BREAKOUT
WIND DIRECTION BREAKOUT
WEATHER BY HOUR - JANUARY 31, 2013
[ °C ]   °F
Local TimeTemperatureDewpointHumidityBarometerVisibilityWind DirectionWind SpeedGust SpeedPrecipitationEventsConditions
1:56 AM43.0 °F36.0 °F76 %30.28 in10.0 miNE (50°)3.5 mphClear
2:56 AM43.0 °F36.0 °F76 %30.28 in10.0 miCalmClear
3:56 AM41.0 °F36.0 °F82 %30.29 in10.0 miCalmOvercast
4:56 AM39.9 °F37.0 °F89 %30.29 in10.0 miSSE (150°)4.6 mph0.00 inRainLight Rain
5:56 AM39.9 °F37.0 °F89 %30.29 in10.0 miCalm0.00 inOvercast
6:56 AM41.0 °F37.9 °F89 %30.29 in10.0 miCalm0.01 inRainLight Rain
7:56 AM39.9 °F37.9 °F93 %30.30 in10.0 miNNE (30°)3.5 mph0.00 inRainLight Rain
8:56 AM41.0 °F39.0 °F93 %30.31 in9.0 miCalm0.00 inOvercast
9:56 AM43.0 °F39.9 °F89 %30.31 in9.0 miNNW (330°)3.5 mphOvercast
10:56 AM44.1 °F39.9 °F85 %30.32 in10.0 miNE (50°)3.5 mphMostly Cloudy
11:56 AM46.9 °F41.0 °F80 %30.30 in10.0 miCalmOvercast
12:56 PM48.9 °F42.1 °F77 %30.28 in10.0 miNE (40°)3.5 mphOvercast
1:56 PM48.9 °F42.1 °F77 %30.27 in10.0 miNE (40°)3.5 mphMostly Cloudy
2:56 PM48.0 °F41.0 °F77 %30.27 in10.0 miNE (50°)4.6 mphOvercast
3:56 PM48.9 °F41.0 °F74 %30.25 in10.0 miNE (40°)4.6 mphMostly Cloudy
4:56 PM46.9 °F39.9 °F77 %30.25 in10.0 miESE (110°)3.5 mphPartly Cloudy
5:56 PM45.0 °F39.9 °F82 %30.25 in10.0 miCalmMostly Cloudy
6:56 PM45.0 °F39.9 °F82 %30.24 in10.0 miCalmOvercast
7:56 PM45.0 °F39.9 °F82 %30.24 in10.0 miSE (130°)3.5 mphOvercast
8:56 PM44.1 °F39.9 °F85 %30.24 in10.0 miSE (130°)3.5 mphOvercast
9:56 PM43.0 °F39.9 °F89 %30.23 in10.0 miNNE (20°)4.6 mphOvercast
10:56 PM43.0 °F39.9 °F89 %30.23 in10.0 miCalmOvercast
11:56 PM42.1 °F39.0 °F89 %30.23 in10.0 miWNW (300°)3.5 mphOvercast
Hourly data recorded from KLWS, located miles away from Uniontown, Washington







STORIES FROM OUR PARTNERS